Regional Weather Roundup
Issued by NWS Kansas City/Pleasant Hill, MO

Home | Current Version | Previous Version | Text Only | Print | Product List | Glossary On
Versions: 1 2 3 4 5 6 7 8 9 10 11 12 13 14 15 16 17 18 19 20 21 22 23 24 25 26 27
000
ASUS43 KEAX 260910
RWREAX

WEATHER ROUNDUP FOR EASTERN KANSAS AND NORTHWEST MISSOURI
NATIONAL WEATHER SERVICE KANSAS CITY/PLEASANT HILL MO
400 AM CDT MON JUN 26 2017

KSZ040-057-103>105-MOZ028-029-037-043-261000-
...KANSAS CITY METROPOLITAN AREA...

CITY           SKY/WX    TMP DP  RH WIND       PRES   REMARKS
K.C. INTL      CLEAR     51  50  96 SW3       30.22F
K.C. DOWNTOWN  CLEAR     57  54  89 CALM      30.22F
LEES SUMMIT      N/A     56  52  86 SW5       30.23S
OLATHE - IXD   CLEAR     53  52  96 S3        30.23F
OLATHE - OJC   CLEAR     53  53 100 CALM      30.23S
LAWRENCE       CLEAR     51  51 100 E3        30.23F

$$

MOZ001>008-011>017-020>025-030>033-038>040-044>046-053-054-261000-
...NORTHERN AND CENTRAL MISSOURI...

CITY           SKY/WX    TMP DP  RH WIND       PRES   REMARKS
ST. JOSEPH     CLEAR     53  53 100 S6        30.21S
MOSBY          SUNNY     50  50 100 CALM      30.23R
WARRENSBURG    CLEAR     52  48  87 CALM      30.23S
WHITEMAN AFB   CLEAR     53  53 100 CALM      30.22S
CLINTON        MOCLDY    55  54  94 MISG      30.24F
SEDALIA        CLEAR     54  53  97 SW6       30.24S
WARSAW         NOT AVBL
CHILLICOTHE      N/A     50  49  96 CALM      30.22S
KIRKSVILLE     CLEAR     51  47  86 SW3       30.21R

$$

MOZ041-047>049-056>058-063>065-088>090-097-261000-
...EASTERN AND SOUTHERN MISSOURI...

CITY           SKY/WX    TMP DP  RH WIND       PRES   REMARKS
ST. LOUIS INTL CLEAR     61  49  64 CALM      30.21R
SPIRIT OF STL  CLEAR     53  51  93 CALM      30.20S
COLUMBIA       CLEAR     57  51  80 NW3       30.22F
JEFFERSON CITY CLEAR     55  51  86 CALM      30.23S
ROLLA          CLOUDY    59  50  72 CALM      30.22F
OSAGE BEACH    PTCLDY    58  51  78 S3        30.25S
SPRINGFIELD    CLOUDY    65  57  75 N8        30.25R
BRANSON          N/A     63  59  88 CALM      30.24S
JOPLIN         CLOUDY    66  57  72 NE5       30.25S
WEST PLAINS    CLOUDY    66  50  56 N6        30.24S

$$

IAZ060-094-KSZ022-034>040-054-083-096-NEZ052-066-093-261000-
...KANSAS...SOUTHEAST NEBRASKA AND IOWA...

CITY           SKY/WX    TMP DP  RH WIND       PRES   REMARKS
TOPEKA         CLEAR     54  54 100 CALM      30.22F
MANHATTAN      CLEAR     55  54  96 CALM      30.22F
EMPORIA        CLOUDY    60  59  96 SE5       30.23F
CHANUTE          N/A    N/A N/A N/A MISG      30.24S
WICHITA        CLOUDY    63  54  72 E7        30.22F
OMAHA          LGT RAIN  60  51  72 S3        30.18R
LINCOLN        CLOUDY    63  52  67 SW8       30.19R
FALLS CITY     CLEAR     51  49  92 E3        30.18F
LAMONI         CLEAR     56  46  69 W5        30.20R
DES MOINES     CLOUDY    59  50  72 CALM      30.20R

$$





USA.gov is the U.S. government's official web portal to all federal, state and local government web resources and services.